Shoreham Airport

Airport
ICAO code: 
EGKA
IATA Code: 
ESH
Summary
ICAO Region: 
EUR
Territory: 
Location: 
, England
Serving: 
Shoreham By Sea
Elevation: 
7 ft
Coordinates: 
Aerial View: 
50° 50' 8.002" N, 0° 17' 49.999" W
Metar
Observation
EGKA 251820Z 26012KT 9999 FEW009 SCT012 15/13 Q1016
Station
Shoreham Airport
Date/Time
2022-05-25 18:20:00
Wind direction
260°
Wind speed
12 kts
Lowest cloud amount
few clouds
Temperature
15°C
Dew point
13°C
Humidity
87%
QNH
1016 hPa
Weather condition
n/a

Description

Also known as Brighton City Airport, Shoreham Airport is 1.9km west Shoreham-by-Sea. The airport is mainly used for general aviation and is the site of an annual airshow in August.

Climatology

Temperate Marine climate/Oceanic climate (Köppen climate classification Cfb). Moderately cool summer and comparatively warm winter with a temperature range of only 14°C. Prevailing south-westerly winds from the Atlantic Ocean.

Runways

Designator Length Width Surface Rops
13/31 400 30 GRE No/No
7/25 877 50 GRE No/No
2/20 1036 18 ASP No/No
Airport map: 
Aerial View: 

Accidents and Serious Incidents at or in the vicinity of EGKA

SKYbrary Partners:

Safety knowledge contributed by: